[[{"header":{"parameterUnit":"m.s-1","parameterCategory":1,"la1":30.2991,"la2":30.254,"lo1":-89.0895,"lo2":-89.0444,"dy":0.0017,"dx":0.0017,"nx":28,"ny":28,"refTime":"2023-09-16T21:00:00:Z","depth":0,"parameterNumber":2,"parameterNumberName":"U-component_of_WINDS"},"data":[0,0,0,0,0,0,0,0,0,0,0,0,0,0,0,0,0,0,0,0,0,0,0,0,0,0,0,0,0,0,0,0,0,0,0,0,0,0,0,0,0,0,0,0,0,0,0,0,0,0,0,0,0,0,0,0,0,0,0.5276,0.5275,0,0.5186,0.5185,0.5184,0.5161,0.5162,0.5163,0.5163,0.5069,0.5066,0.5063,0,0,0,0,0,0,0,0,0,0,0,0,0,0.5424,0.5422,0.5276,0.5275,0.5274,0.5187,0.5185,0.5184,0.5161,0.5162,0.5163,0.5163,0.507,0.5066,0.5062,0,0,0,0,0,0,0,0,0,0,0,0,0,0.535,0.5421,0.5276,0.5252,0.5249,0.5187,0.5185,0.5184,0.5161,0.5162,0.5163,0.5164,0.5071,0.5066,0.5062,0.5017,0,0,0.5048,0.5046,0,0,0,0,0,0,0,0,0.5354,0.5344,0.5257,0.5253,0.525,0.5186,0.5203,0.5128,0.5161,0.5194,0.5163,0.5164,0.5107,0.5099,0.5081,0.5012,0.5008,0.5047,0.5045,0.5043,0.5041,0,0,0,0,0,0,0,0.5359,0.5348,0.524,0.5255,0.5251,0.5245,0.5235,0.5189,0.5147,0.5192,0.519,0.518,0.5105,0.5085,0.5078,0.5007,0.5048,0.5043,0.5041,0.5039,0.4896,0.4895,0,0,0,0,0,0,0.5369,0.5353,0.5243,0.5238,0.5305,0.5241,0.523,0.5206,0.5147,0.5139,0.5179,0.5179,0.5092,0.5083,0.5075,0.5017,0.5043,0.5038,0.5036,0.4897,0.4896,0.4895,0,0,0,0,0,0,0.5372,0.5359,0.5247,0.5295,0.528,0.5238,0.521,0.5203,0.5183,0.5138,0.513,0.5166,0.5093,0.5081,0.5031,0.5014,0.5036,0.5032,0.4899,0.4897,0.4896,0.4903,0,0,0,0,0,0,0.5377,0.5361,0.5344,0.5294,0.5277,0.5206,0.5209,0.5201,0.5176,0.5175,0.5124,0.5116,0.5092,0.5038,0.5027,0.5008,0.5029,0.49,0.4898,0.4896,0.4904,0.4902,0.49,0,0,0,0,0,0.5382,0.5349,0.5343,0.533,0.5255,0.5205,0.5195,0.5169,0.5175,0.5157,0.5127,0.5118,0.5018,0.5033,0.502,0.5,0.4901,0.4898,0.4896,0.4905,0.4902,0.49,0,0,0,0,0,0,0.5396,0.5342,0.5335,0.5285,0.525,0.5201,0.5177,0.5167,0.5129,0.5129,0.5099,0.5087,0.5039,0.5015,0.5033,0.4953,0.4959,0.4954,0.497,0.4967,0.4965,0.4971,0.5025,0,0,0,0,0,0.5393,0.5358,0.5312,0.5272,0.5255,0.522,0.5196,0.518,0.5142,0.5127,0.5094,0.5056,0.5017,0.4991,0.4952,0.4901,0.4889,0.488,0.4878,0.4877,0.4872,0.4843,0.4838,0.4887,0.4887,0.4887,0,0,0.5387,0.5353,0.5332,0.5274,0.5245,0.5208,0.5207,0.5168,0.5139,0.512,0.5071,0.5046,0.5002,0.4952,0.4928,0.493,0.4856,0.4874,0.4873,0.4869,0.484,0.4835,0.4831,0.4886,0.4886,0.4886,0,0,0.5356,0.5328,0.5291,0.5262,0.5219,0.5195,0.5187,0.514,0.5122,0.5073,0.5058,0.5024,0.4956,0.4925,0.4901,0.486,0.4849,0.4848,0.4837,0.4808,0.4805,0.4801,0.4785,0.478,0.4844,0.4844,0.4844,0,0.5354,0.5298,0.5273,0.5235,0.5209,0.5192,0.5154,0.5127,0.5072,0.5055,0.5058,0.4973,0.4942,0.4884,0.4874,0.4856,0.4844,0.4853,0.4807,0.4803,0.48,0.4784,0.4779,0.4844,0.4844,0.4844,0.4844,0,0.5296,0.5258,0.5234,0.5183,0.5155,0.5117,0.5085,0.506,0.5046,0.5022,0.4972,0.4935,0.4888,0.4873,0.4859,0.4813,0.4816,0.4814,0.4819,0.4796,0.4781,0.4775,0.4844,0.4844,0.4844,0.4844,0,0,0.527,0.5207,0.5198,0.5175,0.5126,0.5095,0.5057,0.5012,0.499,0.4953,0.4919,0.4863,0.4861,0.4834,0.4816,0.4791,0.476,0.4792,0.4791,0.4787,0.4706,0.4707,0.4701,0.4754,0.4753,0.4752,0.471,0,0.5233,0.5164,0.5141,0.5083,0.5047,0.503,0.4996,0.4962,0.4939,0.4904,0.4879,0.4839,0.484,0.4823,0.4798,0.477,0.4744,0.4772,0.4721,0.4719,0.4731,0.4693,0.4693,0.4655,0.4704,0.4703,0.4702,0,0.5179,0.5143,0.5082,0.5037,0.5021,0.4991,0.4948,0.4916,0.4877,0.4862,0.4832,0.4816,0.4774,0.4784,0.4725,0.4746,0.4723,0.4706,0.4704,0.4697,0.4708,0.4684,0.4643,0.4636,0.4693,0.4694,0.4694,0,0.5165,0.5101,0.5056,0.5036,0.4984,0.4963,0.494,0.4902,0.4877,0.4839,0.4822,0.478,0.4756,0.4724,0.4697,0.4707,0.4641,0.4648,0.4626,0.4626,0.4611,0.4612,0.4565,0.4599,0.46,0.46,0.46,0,0.5124,0.5087,0.5048,0.502,0.4978,0.4953,0.4911,0.4887,0.4854,0.482,0.4804,0.4773,0.474,0.4704,0.4683,0.4638,0.4627,0.4613,0.4608,0.4614,0.4616,0.4598,0.4599,0.4598,0.4598,0.4599,0.4599,0,0.51,0.5073,0.5023,0.4978,0.4966,0.4937,0.4898,0.487,0.4847,0.4805,0.4793,0.4757,0.4714,0.4685,0.463,0.4616,0.4566,0.4562,0.4579,0.4576,0.4555,0.4557,0.4493,0.4483,0.4526,0.4526,0.4526,0,0.5075,0.5047,0.4999,0.4976,0.4953,0.4916,0.4891,0.4864,0.4838,0.4792,0.4769,0.4726,0.4689,0.4622,0.459,0.4548,0.4542,0.4522,0.4535,0.4542,0.454,0.4541,0.4538,0.452,0.4519,0.4519,0.4519,0,0.5034,0.5022,0.4986,0.4945,0.4915,0.4882,0.4848,0.483,0.4798,0.4769,0.4726,0.4698,0.4642,0.4599,0.4554,0.453,0.4518,0.4516,0.4508,0.4513,0.4524,0.4517,0.4572,0.4517,0.4517,0.4517,0.4517,0.4517,0.5007,0.4981,0.4944,0.4904,0.4876,0.4845,0.4817,0.4791,0.4755,0.4708,0.4695,0.465,0.4611,0.455,0.4525,0.4489,0.449,0.448,0.4477,0.4474,0.4474,0.4531,0.4481,0.4481,0.4481,0.4481,0.4481,0,0.4964,0.4939,0.4903,0.4857,0.4826,0.482,0.4783,0.4757,0.4717,0.4683,0.4648,0.4599,0.4557,0.4522,0.4479,0.4457,0.445,0.4446,0.4447,0.4441,0.4475,0.4486,0.4452,0.4452,0.4452,0.4452,0.4452,0.4452,0.4937,0.4892,0.4876,0.4817,0.4792,0.4748,0.4728,0.4699,0.4671,0.4617,0.4583,0.4561,0.4526,0.4481,0.4442,0.4433,0.4417,0.4414,0.4403,0.4435,0.4439,0.4442,0.4451,0.4411,0.4411,0.4372,0.4371,0.4371]},{"header":{"parameterUnit":"m.s-1","parameterCategory":1,"la1":30.2991,"la2":30.254,"lo1":-89.0895,"lo2":-89.0444,"dy":0.0017,"dx":0.0017,"nx":28,"ny":28,"refTime":"2023-09-16T21:00:00:Z","depth":0,"parameterNumber":3,"parameterNumberName":"V-component_of_WINDS"},"data":[0,0,0,0,0,0,0,0,0,0,0,0,0,0,0,0,0,0,0,0,0,0,0,0,0,0,0,0,0,0,0,0,0,0,0,0,0,0,0,0,0,0,0,0,0,0,0,0,0,0,0,0,0,0,0,0,0,0,-4.0315,-4.0316,0,-4.0384,-4.0384,-4.0385,-4.0327,-4.0324,-4.0322,-4.032,-4.0385,-4.0389,-4.0393,0,0,0,0,0,0,0,0,0,0,0,0,0,-4.0129,-4.0133,-4.0315,-4.0316,-4.0317,-4.0384,-4.0384,-4.0385,-4.0327,-4.0324,-4.0321,-4.0319,-4.0384,-4.0389,-4.0393,0,0,0,0,0,0,0,0,0,0,0,0,0,-4.0205,-4.0134,-4.0315,-4.0296,-4.0295,-4.0383,-4.0384,-4.0386,-4.0328,-4.0324,-4.0321,-4.0317,-4.0382,-4.0388,-4.0394,-4.0503,0,0,-4.0412,-4.0415,0,0,0,0,0,0,0,0,-4.0201,-4.0212,-4.0298,-4.0297,-4.0296,-4.0343,-4.0343,-4.0425,-4.0329,-4.0315,-4.032,-4.0315,-4.0374,-4.038,-4.0401,-4.0507,-4.0509,-4.0413,-4.0417,-4.0419,-4.0421,0,0,0,0,0,0,0,-4.0195,-4.0208,-4.0342,-4.0299,-4.0298,-4.0282,-4.0289,-4.0358,-4.0364,-4.0316,-4.0312,-4.0321,-4.0373,-4.0395,-4.0402,-4.051,-4.0413,-4.0418,-4.0422,-4.0424,-4.0708,-4.0712,0,0,0,0,0,0,-4.0193,-4.0204,-4.034,-4.0344,-4.0239,-4.0289,-4.0296,-4.0332,-4.0363,-4.0364,-4.0324,-4.0318,-4.0387,-4.0395,-4.0404,-4.0534,-4.0419,-4.0425,-4.0428,-4.0704,-4.0709,-4.0713,0,0,0,0,0,0,-4.0189,-4.0205,-4.0337,-4.0273,-4.0289,-4.0296,-4.0336,-4.0335,-4.0357,-4.0369,-4.0369,-4.0347,-4.0384,-4.0396,-4.0479,-4.0535,-4.0427,-4.0433,-4.0699,-4.0706,-4.0711,-4.0795,0,0,0,0,0,0,-4.0184,-4.0204,-4.0247,-4.0275,-4.0292,-4.0413,-4.0339,-4.0339,-4.0369,-4.0361,-4.039,-4.0391,-4.0382,-4.0471,-4.0485,-4.0542,-4.0438,-4.0694,-4.0702,-4.0709,-4.0787,-4.0803,-4.0816,0,0,0,0,0,-4.0177,-4.0267,-4.025,-4.0266,-4.0346,-4.0416,-4.0426,-4.0415,-4.0373,-4.0416,-4.0423,-4.0391,-4.0527,-4.048,-4.0496,-4.0555,-4.0691,-4.07,-4.0709,-4.078,-4.08,-4.0816,0,0,0,0,0,0,-4.0245,-4.027,-4.0251,-4.0353,-4.0383,-4.0406,-4.0459,-4.0436,-4.0478,-4.0469,-4.0452,-4.0459,-4.0547,-4.0559,-4.0506,-4.0662,-4.0602,-4.0614,-4.0651,-4.0669,-4.0684,-4.0679,-4.0443,0,0,0,0,0,-4.0272,-4.0328,-4.0347,-4.0434,-4.0451,-4.0453,-4.0483,-4.0472,-4.0501,-4.0513,-4.0527,-4.0556,-4.0605,-4.0638,-4.0684,-4.0788,-4.0793,-4.0836,-4.0851,-4.0863,-4.0874,-4.0929,-4.0949,-4.0742,-4.0742,-4.0742,0,0,-4.0327,-4.0348,-4.0384,-4.0448,-4.047,-4.0527,-4.0464,-4.0527,-4.0569,-4.0522,-4.0603,-4.0614,-4.0644,-4.0739,-4.0781,-4.0752,-4.0932,-4.0874,-4.0884,-4.0888,-4.0941,-4.096,-4.0977,-4.0748,-4.0747,-4.0746,0,0,-4.0458,-4.048,-4.0555,-4.0579,-4.0614,-4.0614,-4.0633,-4.066,-4.0666,-4.0746,-4.0713,-4.0761,-4.0846,-4.087,-4.0893,-4.1032,-4.1004,-4.1047,-4.1124,-4.1178,-4.1194,-4.1209,-4.1258,-4.1276,-4.1058,-4.1058,-4.1059,0,-4.0522,-4.0609,-4.0597,-4.0663,-4.0691,-4.0654,-4.0729,-4.0752,-4.0799,-4.0819,-4.0785,-4.0892,-4.091,-4.1009,-4.1043,-4.1063,-4.1082,-4.1044,-4.1193,-4.1208,-4.1221,-4.1267,-4.1286,-4.1063,-4.1063,-4.1062,-4.1062,0,-4.0686,-4.0746,-4.0802,-4.0851,-4.0886,-4.0956,-4.0953,-4.099,-4.0975,-4.0979,-4.1061,-4.1082,-4.1131,-4.1153,-4.114,-4.1251,-4.1231,-4.1196,-4.1135,-4.1246,-4.1289,-4.1307,-4.1071,-4.1069,-4.1067,-4.1066,0,0,-4.0861,-4.0902,-4.0923,-4.0944,-4.098,-4.1025,-4.1093,-4.1143,-4.1174,-4.1208,-4.1263,-4.1336,-4.1304,-4.133,-4.1318,-4.1366,-4.1475,-4.1325,-4.1325,-4.1352,-4.1597,-4.1624,-4.1645,-4.1456,-4.1459,-4.1462,-4.1595,0,-4.0993,-4.1113,-4.1104,-4.1217,-4.1272,-4.1237,-4.1296,-4.1323,-4.1328,-4.1374,-4.1378,-4.1431,-4.1384,-4.14,-4.1445,-4.1452,-4.1524,-4.1442,-4.1506,-4.1509,-4.15,-4.1668,-4.1696,-4.1821,-4.1612,-4.1615,-4.1617,0,-4.1163,-4.1205,-4.1324,-4.1351,-4.1373,-4.1427,-4.1471,-4.1516,-4.1545,-4.1546,-4.1575,-4.1555,-4.1622,-4.156,-4.1651,-4.1596,-4.1621,-4.1628,-4.1633,-4.1638,-4.1569,-4.1677,-4.186,-4.1879,-4.1643,-4.1641,-4.1639,0,-4.1279,-4.1364,-4.1446,-4.1465,-4.1499,-4.1537,-4.1553,-4.1579,-4.1609,-4.1647,-4.1666,-4.1711,-4.1736,-4.177,-4.1763,-4.1718,-4.1855,-4.1793,-4.1856,-4.1857,-4.1887,-4.1885,-4.2076,-4.1904,-4.1903,-4.1903,-4.1903,0,-4.1428,-4.1502,-4.1499,-4.1549,-4.1631,-4.1618,-4.1699,-4.1709,-4.1733,-4.1783,-4.1755,-4.1802,-4.1789,-4.1836,-4.183,-4.1906,-4.1917,-4.1918,-4.1916,-4.1921,-4.1921,-4.1937,-4.1928,-4.1908,-4.1907,-4.1906,-4.1905,0,-4.1571,-4.1572,-4.1659,-4.1684,-4.1692,-4.1751,-4.1771,-4.1818,-4.182,-4.1885,-4.1899,-4.1903,-4.1956,-4.1952,-4.2012,-4.2007,-4.2101,-4.2089,-4.2092,-4.2089,-4.2153,-4.2147,-4.2361,-4.2388,-4.2199,-4.22,-4.2202,0,-4.1666,-4.1722,-4.1753,-4.1786,-4.1804,-4.1857,-4.1888,-4.1878,-4.1911,-4.1949,-4.1991,-4.2042,-4.2082,-4.2169,-4.2176,-4.2221,-4.2209,-4.2281,-4.2216,-4.2219,-4.221,-4.2207,-4.2212,-4.2294,-4.2296,-4.2298,-4.2299,0,-4.1834,-4.1832,-4.1879,-4.1926,-4.1964,-4.2001,-4.2034,-4.2061,-4.2054,-4.2093,-4.2148,-4.2179,-4.2241,-4.2292,-4.2335,-4.2348,-4.2323,-4.232,-4.2337,-4.2343,-4.2343,-4.2343,-4.2127,-4.2315,-4.2313,-4.2312,-4.2311,-4.2311,-4.1956,-4.2004,-4.2034,-4.2087,-4.2111,-4.2142,-4.2187,-4.2196,-4.2243,-4.2293,-4.2283,-4.2345,-4.2372,-4.2427,-4.2445,-4.2492,-4.2466,-4.2491,-4.2497,-4.2503,-4.2511,-4.2335,-4.25,-4.2499,-4.2499,-4.2499,-4.2498,0,-4.2122,-4.214,-4.2189,-4.2236,-4.2278,-4.2251,-4.2286,-4.2322,-4.2378,-4.2405,-4.2446,-4.2509,-4.2558,-4.2569,-4.2615,-4.2651,-4.264,-4.2663,-4.266,-4.2664,-4.2531,-4.2512,-4.2671,-4.2671,-4.2671,-4.2671,-4.2671,-4.2671,-4.2214,-4.2294,-4.2295,-4.2387,-4.2403,-4.2465,-4.2487,-4.2515,-4.2537,-4.2609,-4.2651,-4.2658,-4.2679,-4.2726,-4.2769,-4.2771,-4.2789,-4.2817,-4.2814,-4.2691,-4.2673,-4.2657,-4.2638,-4.2821,-4.2822,-4.2943,-4.2944,-4.2945]}]]